Temperature
28 29 29 29 29 28 28 29 29 29 29 30 29 27 25 24 23 22 21 20 19 19 18 17 17 17 17 17 16 16 16 16 16 16 16 16 16 16 16 15 15 15 15 15
27 28 28 28 28 28 28 29 29 29 29 29 27 25 24 23 23 22 21 20 19 18 18 17 17 17 17 16 16 16 16 16 16 16 16 15 15 15 15 15 15 15 15 15
26 27 27 27 28 28 28 29 29 28 29 27 26 25 24 23 22 21 20 19 19 18 17 17 17 17 16 16 16 16 16 16 16 16 15 15 15 15 15 15 15 15 15 14
26 26 25 27 28 28 28 28 28 28 27 26 25 22 21 21 21 20 19 18 18 17 17 17 17 17 16 16 16 16 16 16 15 15 15 15 15 15 15 15 14 14 14 14
25 25 26 26 26 26 26 27 27 27 26 24 22 21 20 19 19 18 18 18 17 17 17 17 16 16 16 16 16 16 15 15 15 15 15 15 14 14 14 14 14 14 13 13
24 24 24 26 26 25 25 25 26 25 24 23 23 25 22 18 17 17 17 17 16 16 17 16 16 16 16 16 15 15 15 15 15 14 14 14 14 14 14 13 13 13 13 12
24 24 25 25 24 24 24 25 23 23 23 23 23 22 19 17 16 16 16 16 16 16 16 16 16 16 15 15 15 15 14 14 14 14 14 14 14 13 13 13 12 12 12 11
23 23 24 23 23 24 22 21 21 21 21 20 19 17 17 16 16 15 15 15 15 15 15 15 15 15 15 15 15 14 14 14 14 13 13 13 13 13 12 12 12 11 11 10
23 23 20 20 20 19 19 19 19 19 19 18 18 17 16 15 15 15 14 14 14 14 14 15 14 14 14 14 14 14 14 13 13 13 13 13 13 12 12 11 11 11 10 9
21 22 20 19 18 17 17 18 18 18 17 17 17 16 16 15 14 14 14 14 14 14 14 14 14 14 14 14 14 13 13 13 13 12 12 12 11 11 11 11 10 10 9 9
21 21 19 18 18 17 16 16 16 16 16 16 16 15 15 14 13 13 13 13 13 13 13 13 13 13 13 13 13 13 12 12 11 11 11 11 10 10 10 10 10 9 9 9
20 20 20 19 17 16 15 15 15 15 14 14 14 14 13 13 12 12 12 12 12 12 12 12 12 12 12 12 12 12 11 11 11 10 10 10 9 9 9 9 8 8 8 8
18 17 17 16 15 15 14 14 14 13 13 13 12 12 12 12 12 11 11 11 11 11 11 11 11 11 11 11 11 11 11 10 10 10 9 9 9 8 8 7 7 7 6 6
15 15 16 15 14 14 13 13 13 12 12 12 12 11 11 11 11 11 11 10 10 10 10 10 10 10 10 11 11 10 10 10 9 9 9 8 8 7 7 7 6 5 5 5
15 15 15 14 13 12 12 12 12 12 11 11 11 10 10 10 10 10 10 10 10 10 10 10 10 9 10 10 10 10 9 9 9 8 8 8 7 7 6 6 5 5 4 4
14 14 13 13 12 12 11 11 11 11 10 10 10 9 9 9 9 9 9 9 9 9 9 9 9 9 9 9 9 9 8 8 8 8 7 7 7 6 6 6 5 5 4 4
14 13 13 12 12 11 11 10 10 10 9 9 9 9 9 9 9 8 8 9 9 9 9 9 8 8 8 8 8 8 8 7 7 7 7 7 6 6 6 6 5 5 5 4
13 13 13 12 11 11 10 10 9 9 9 8 8 8 8 8 8 8 8 8 8 8 8 8 8 8 8 8 8 8 7 7 7 7 6 6 6 6 6 5 5 5 5 4
12 12 11 11 10 10 10 9 9 9 8 8 8 8 8 8 8 8 8 8 8 8 8 8 8 8 8 7 7 7 7 7 7 6 6 6 6 6 6 6 5 5 5 5
11 11 10 10 10 9 9 9 9 8 8 8 8 8 8 8 8 8 8 8 8 8 7 7 7 7 7 7 7 7 7 7 7 6 6 6 6 6 6 6 6 6 5 5
10 10 10 9 9 9 9 8 8 8 8 8 8 8 8 8 8 8 8 8 7 7 7 7 7 7 7 7 7 7 7 7 7 6 6 6 6 6 6 6 6 6 5 5
10 9 9 9 9 8 8 8 8 8 8 8 8 8 8 7 7 7 7 7 7 7 7 7 7 7 7 7 7 7 7 7 7 7 7 6 6 6 6 6 6 6 5 5
9 9 9 8 8 8 8 8 8 8 8 8 8 8 8 8 8 8 7 7 7 7 7 7 7 7 7 7 7 7 7 7 7 7 7 7 6 6 6 6 6 6 6 5
9 8 8 8 8 8 8 8 8 8 8 8 8 8 8 8 8 8 8 7 7 7 7 7 7 7 7 7 7 7 7 7 7 7 7 7 7 6 6 6 6 6 6 5
8 8 8 8 8 8 8 8 8 8 8 8 8 8 8 8 8 8 7 7 7 7 7 7 7 7 7 7 7 7 7 7 7 7 7 7 7 7 6 6 6 6 6 6
8 8 8 8 8 8 8 8 8 8 8 8 8 8 8 8 7 8 7 7 7 7 7 7 7 7 7 7 7 7 7 7 7 7 7 7 7 7 6 6 6 6 6 6
8 8 8 8 8 8 8 9 8 8 8 8 8 8 8 8 7 7 7 7 7 7 7 7 7 7 7 7 7 7 7 7 7 7 7 7 7 6 6 6 6 6 6 6
Wind_Speed
13 8 7 12 13 15 16 16 14 11 11 7 7 7 8 8 9 10 10 9 9 9 9 8 8 7 7 7 7 7 8 8 8 7 7 8 8 8 8 8 8 8 7 7
12 11 11 13 13 14 16 15 14 12 10 2 5 7 8 9 10 10 10 9 9 8 9 9 8 8 7 7 7 7 8 8 8 8 8 8 8 8 8 8 8 8 8 8
14 11 11 16 15 15 14 13 13 14 7 6 7 7 8 9 9 9 8 8 8 8 8 7 7 7 7 7 7 8 8 8 8 8 8 9 9 9 9 9 9 9 9 9
12 11 16 10 3 8 12 11 10 7 2 4 6 7 6 6 7 8 7 7 6 5 6 6 6 7 7 7 8 8 8 8 8 8 8 8 9 9 9 9 9 9 9 10
12 15 16 8 5 7 10 11 9 8 6 7 10 10 7 6 6 6 6 5 5 5 5 5 6 7 7 8 8 8 8 8 8 9 9 9 10 10 9 10 10 10 10 11
12 15 16 9 5 3 6 11 6 7 8 9 11 9 6 7 7 7 6 5 4 4 4 5 5 6 8 8 8 8 8 8 8 9 10 10 10 10 10 10 11 11 11 10
15 15 12 2 4 5 10 4 3 5 7 8 5 3 9 9 7 6 5 5 4 4 4 3 5 6 7 7 7 7 8 8 8 9 10 11 10 10 11 11 12 12 12 11
14 16 12 4 4 5 1 4 3 4 5 5 7 9 9 8 7 6 5 5 4 4 3 3 4 6 7 7 7 7 8 9 9 10 9 10 12 11 12 13 13 12 12 11
7 4 4 2 1 3 2 2 3 4 5 6 7 6 6 6 5 5 4 4 3 4 4 3 2 4 6 6 7 9 9 10 10 11 10 10 11 12 11 10 10 10 11 11
5 3 1 1 2 2 2 2 3 3 4 5 5 5 5 4 4 4 4 4 4 4 4 4 3 3 5 6 8 10 11 11 11 11 11 10 8 8 9 9 10 10 10 11
7 4 2 3 2 3 3 3 4 4 3 3 4 4 4 4 4 3 3 3 4 4 4 4 4 5 5 7 9 11 12 11 11 11 11 11 10 8 8 8 7 9 10 11
5 1 2 2 3 3 3 3 3 4 4 3 3 4 5 4 4 4 4 4 5 5 5 5 5 6 6 8 10 12 12 11 10 11 11 11 12 13 19 16 18 16 13 12
1 1 1 2 2 2 2 3 3 3 3 3 4 4 5 5 4 5 5 5 5 5 6 6 6 7 7 8 10 12 12 12 11 11 11 12 12 13 13 15 19 18 16 15
1 2 2 2 2 2 3 3 4 4 4 4 4 5 6 6 6 6 6 6 6 7 7 7 8 8 8 9 11 12 13 13 12 11 11 11 11 12 12 14 13 10 12 13
3 3 2 2 3 4 4 4 5 5 5 5 5 6 6 7 7 7 7 7 8 8 8 9 10 10 9 11 13 14 13 11 11 11 11 11 12 12 12 13 13 12 11 9
3 3 4 5 5 5 5 5 5 5 6 6 6 6 7 8 8 8 8 8 9 10 9 10 11 10 11 12 13 12 12 15 14 12 12 12 11 12 12 12 12 11 10 10
7 7 7 7 7 6 6 5 6 6 7 7 8 9 9 10 10 10 9 9 10 11 11 11 11 11 11 13 13 12 13 13 15 13 11 11 11 11 11 11 10 10 9 9
8 7 7 7 7 7 8 7 8 8 8 9 10 10 10 11 11 11 11 11 12 12 11 11 11 12 12 13 12 12 12 11 10 11 10 10 10 10 10 10 11 11 10 10
7 7 7 8 8 8 9 9 9 10 10 10 11 11 11 11 11 12 12 12 13 12 10 11 11 12 12 12 12 10 11 12 11 10 10 10 9 9 9 9 9 9 9 9
8 9 9 9 10 10 11 11 11 11 10 11 12 12 12 12 12 12 12 10 8 9 11 11 11 11 12 11 9 10 11 11 11 10 10 9 9 9 8 9 9 9 9 8
10 11 11 11 11 11 12 12 12 12 12 12 12 13 13 12 11 11 10 10 9 10 11 9 9 9 10 9 8 10 10 10 10 9 9 8 8 8 8 8 8 8 8 7
10 11 12 12 13 12 12 12 12 13 13 12 13 13 13 12 11 10 9 8 9 7 8 8 8 10 9 9 8 9 9 9 8 8 8 8 8 8 8 8 8 7 7 7
10 11 13 13 13 13 13 12 12 12 12 12 12 12 11 10 9 9 9 7 8 6 6 8 10 11 8 7 8 8 9 8 8 7 7 7 7 7 8 8 7 7 7 7
11 12 13 13 13 14 13 12 11 10 11 10 10 10 9 9 7 7 8 9 8 7 7 9 10 8 6 6 7 7 7 7 7 7 7 7 7 7 7 7 7 7 7 7
12 12 13 13 12 11 12 12 12 11 11 9 10 9 7 6 7 7 8 9 9 7 7 8 7 6 6 5 6 6 6 6 6 6 6 6 7 7 7 7 7 7 7 7
11 10 10 9 9 9 10 10 9 9 8 8 8 7 7 7 8 7 7 8 9 7 7 7 7 7 5 5 6 6 6 6 7 6 6 6 7 7 7 7 8 7 7 7
11 10 9 8 8 8 8 8 8 8 8 8 7 7 7 7 7 7 7 7 7 6 6 6 7 7 6 6 6 6 5 6 6 6 7 7 7 7 7 8 8 7 7 8
Wind_Direction
250 258 235 228 223 216 224 239 250 248 248 237 191 180 168 161 158 159 162 165 167 166 165 168 168 171 173 172 171 175 178 180 179 174 171 166 159 156 155 154 155 152 149 147
234 235 235 238 234 226 226 236 245 254 252 184 147 156 160 163 162 160 162 166 166 167 169 173 173 174 175 174 173 175 179 181 173 166 165 163 157 150 144 140 138 136 134 131
236 225 231 235 231 228 227 231 238 243 241 165 163 161 162 161 161 157 155 159 165 168 171 174 177 178 177 176 175 175 175 172 167 165 163 160 155 149 144 140 135 129 125 120
239 226 236 239 223 238 240 237 238 248 217 175 151 134 132 145 150 147 146 147 151 157 165 173 177 177 177 174 175 174 171 168 165 162 157 153 148 144 141 138 133 127 125 122
236 233 236 225 213 222 230 236 229 226 194 155 142 137 121 117 124 128 133 140 143 148 158 168 175 177 177 174 172 172 170 166 163 159 153 148 146 141 137 131 124 120 119 119
232 241 243 236 171 199 238 236 210 204 187 172 177 199 144 128 124 120 120 122 128 139 151 158 172 177 174 174 172 173 167 159 155 152 146 141 138 134 128 124 121 117 112 112
234 238 243 147 141 187 226 237 136 179 180 183 185 66 114 121 115 116 117 117 122 130 131 150 170 172 170 168 172 167 155 150 147 143 139 135 129 127 125 122 117 113 108 104
231 238 234 111 177 218 353 58 101 143 152 142 113 108 115 117 117 118 118 115 118 121 120 131 159 166 165 166 162 152 144 138 136 133 131 129 126 124 124 124 120 117 113 106
233 238 68 78 56 45 32 96 106 121 127 133 133 129 127 124 119 115 117 120 125 126 120 112 132 156 157 155 149 140 132 128 124 121 120 124 126 127 125 126 126 127 123 117
242 218 148 130 127 103 90 104 105 115 129 140 145 142 138 132 126 120 119 124 125 123 117 105 97 116 130 136 137 133 128 123 122 120 118 115 116 121 126 129 129 127 124 121
237 228 211 180 155 128 112 111 110 109 115 134 146 149 146 139 132 126 116 113 116 121 120 114 111 113 121 131 133 129 124 122 120 117 114 106 93 82 99 87 106 124 127 127
246 186 246 162 145 151 146 123 110 108 107 109 127 137 137 135 130 126 119 114 116 118 118 117 117 116 120 129 131 129 124 123 121 119 116 113 107 89 66 76 73 74 82 104
311 29 38 114 139 150 139 116 104 107 112 116 116 125 130 126 120 114 112 114 114 114 117 118 116 114 119 127 128 128 128 128 125 124 123 121 120 117 109 84 72 72 79 92
184 174 175 175 163 148 138 126 116 110 108 113 116 120 123 123 118 112 110 109 110 111 111 110 108 105 112 120 122 121 121 121 122 122 123 124 122 122 122 122 116 101 85 93
216 237 241 152 151 152 150 144 134 124 116 112 116 122 125 124 119 112 112 113 112 110 110 108 105 104 109 116 119 120 120 121 119 121 122 122 122 123 124 124 124 124 124 115
206 192 177 171 166 162 159 155 143 135 128 123 121 121 120 117 114 112 113 117 115 112 111 110 108 111 115 115 115 113 113 117 121 122 123 125 126 127 128 129 130 134 139 141
206 201 188 181 171 165 161 153 145 139 133 129 127 123 120 117 113 110 108 107 108 108 109 110 111 115 117 118 117 117 118 120 123 123 125 127 129 132 134 135 137 140 139 137
223 209 188 176 166 157 149 142 135 131 130 128 127 124 122 122 120 117 116 115 110 105 105 111 116 118 118 119 118 119 122 124 123 121 124 128 130 133 135 137 142 142 140 148
192 175 161 155 153 148 141 134 129 126 126 128 126 123 122 123 124 123 123 120 116 113 112 112 112 119 119 119 120 124 126 127 126 126 126 129 138 141 144 147 148 148 148 154
155 149 144 142 140 138 134 131 128 126 127 128 125 123 122 122 123 123 121 116 114 117 123 124 125 121 124 129 132 130 129 131 132 134 138 146 146 148 153 153 153 153 155 159
145 141 139 137 132 131 131 131 129 128 130 131 129 126 124 124 126 125 123 116 112 119 124 126 128 129 130 134 143 134 135 137 139 142 147 151 154 157 157 159 160 161 163 168
141 139 137 134 132 130 131 132 131 132 133 132 130 128 127 127 126 122 115 118 126 132 140 138 134 122 131 144 143 140 142 145 148 152 157 160 162 163 164 167 169 171 172 176
136 134 134 133 132 130 130 130 131 132 132 132 133 134 133 132 135 133 127 125 134 142 143 129 121 128 151 160 144 146 147 151 155 160 164 167 169 169 170 174 179 181 182 185
128 129 129 129 129 128 128 129 128 127 127 127 129 131 133 132 130 124 118 115 113 129 130 118 128 147 185 154 150 155 156 159 166 171 172 174 175 179 182 185 187 188 189 195
125 126 128 130 130 128 127 127 124 125 126 126 127 130 133 130 129 127 126 130 134 141 136 135 146 171 180 159 163 167 172 177 180 182 180 182 187 189 194 197 197 199 203 206
118 118 117 117 118 124 130 129 127 128 130 129 127 129 127 124 126 129 133 138 142 147 149 153 164 184 187 180 180 185 185 175 184 199 197 196 199 202 205 207 210 213 214 217
108 109 109 110 114 118 121 122 124 127 130 132 131 132 133 135 137 140 144 147 152 159 164 170 175 183 190 193 193 193 198 199 200 203 203 207 211 212 211 214 221 221 223 225
Height
1450 1448 1450 1452 1453 1456 1461 1458 1461 1458 1456 1453 1457 1463 1469 1473 1476 1479 1483 1485 1488 1490 1492 1494 1495 1497 1499 1500 1502 1503 1505 1507 1508 1510 1512 1515 1517 1519 1522 1525 1528 1531 1533 1536
1455 1451 1451 1453 1451 1452 1455 1454 1454 1454 1453 1453 1459 1465 1469 1472 1475 1478 1481 1484 1487 1489 1491 1492 1494 1495 1497 1499 1500 1501 1503 1505 1507 1509 1511 1513 1515 1518 1520 1523 1526 1529 1531 1534
1455 1450 1453 1458 1449 1449 1450 1449 1451 1454 1451 1455 1460 1464 1468 1472 1474 1477 1480 1483 1485 1487 1489 1490 1492 1494 1495 1497 1498 1500 1501 1503 1504 1507 1509 1511 1513 1516 1518 1521 1524 1526 1529 1532
1453 1457 1469 1448 1444 1445 1447 1447 1448 1450 1454 1457 1462 1467 1470 1472 1475 1477 1479 1481 1483 1485 1487 1489 1490 1492 1494 1495 1496 1498 1499 1501 1503 1505 1507 1509 1511 1514 1517 1520 1522 1525 1528 1531
1453 1457 1453 1448 1446 1447 1449 1449 1448 1451 1455 1460 1465 1468 1472 1474 1475 1477 1479 1480 1482 1484 1486 1487 1488 1490 1492 1493 1494 1496 1498 1499 1501 1503 1505 1507 1510 1512 1515 1518 1521 1524 1527 1530
1453 1459 1458 1444 1444 1449 1451 1452 1449 1452 1456 1460 1462 1460 1468 1474 1475 1477 1478 1480 1481 1483 1484 1485 1486 1488 1490 1491 1492 1494 1496 1498 1500 1502 1504 1506 1508 1511 1514 1516 1519 1523 1526 1529
1452 1454 1446 1443 1448 1451 1458 1452 1452 1454 1457 1460 1460 1462 1469 1472 1475 1476 1478 1479 1480 1481 1482 1484 1485 1486 1488 1489 1491 1493 1495 1497 1499 1501 1503 1505 1508 1510 1513 1516 1519 1522 1525 1528
1449 1453 1450 1448 1448 1450 1453 1455 1455 1457 1459 1462 1465 1467 1470 1472 1474 1476 1477 1478 1479 1480 1481 1482 1483 1484 1485 1487 1489 1491 1493 1495 1498 1500 1502 1505 1507 1509 1512 1515 1519 1522 1524 1527
1443 1447 1451 1452 1453 1456 1457 1457 1458 1460 1462 1463 1466 1468 1470 1472 1474 1475 1476 1477 1478 1479 1479 1480 1481 1482 1483 1485 1487 1489 1491 1493 1496 1499 1502 1504 1506 1509 1512 1515 1518 1521 1524 1527
1447 1446 1451 1454 1455 1457 1458 1459 1460 1461 1462 1464 1466 1468 1470 1472 1473 1474 1475 1476 1477 1477 1478 1478 1479 1480 1481 1483 1485 1487 1489 1492 1495 1498 1501 1504 1507 1510 1512 1515 1518 1521 1523 1526
1447 1448 1452 1454 1456 1457 1458 1459 1460 1461 1462 1464 1465 1467 1468 1470 1471 1472 1473 1474 1475 1475 1476 1477 1477 1478 1480 1481 1484 1486 1488 1491 1494 1497 1500 1503 1507 1510 1513 1516 1518 1521 1524 1527
1445 1449 1451 1453 1456 1458 1459 1459 1460 1461 1462 1463 1464 1466 1467 1468 1470 1471 1471 1472 1473 1473 1474 1475 1476 1477 1478 1480 1483 1485 1487 1491 1494 1497 1501 1504 1506 1510 1514 1517 1520 1523 1526 1529
1450 1451 1453 1455 1456 1457 1458 1459 1460 1460 1461 1463 1463 1464 1466 1467 1468 1469 1470 1471 1471 1472 1473 1474 1475 1476 1478 1480 1483 1485 1488 1491 1494 1498 1501 1505 1508 1511 1514 1519 1523 1526 1529 1532
1451 1452 1453 1454 1456 1456 1457 1458 1459 1460 1461 1462 1462 1463 1465 1466 1467 1468 1469 1470 1471 1472 1473 1474 1475 1477 1479 1481 1483 1486 1489 1492 1495 1499 1503 1506 1509 1513 1516 1519 1524 1528 1532 1535
1450 1451 1452 1453 1454 1455 1456 1457 1458 1459 1460 1461 1462 1463 1464 1465 1466 1467 1469 1470 1471 1472 1474 1475 1477 1478 1480 1482 1485 1487 1490 1494 1497 1501 1505 1508 1512 1516 1520 1523 1526 1530 1533 1537
1448 1449 1450 1452 1453 1454 1456 1457 1457 1458 1459 1460 1462 1463 1464 1465 1466 1467 1469 1471 1472 1474 1476 1477 1479 1481 1483 1485 1487 1490 1493 1496 1500 1503 1507 1511 1515 1519 1522 1525 1529 1532 1536 1539
1446 1447 1449 1450 1452 1453 1455 1456 1457 1458 1459 1460 1461 1463 1464 1465 1467 1469 1471 1474 1475 1477 1479 1481 1482 1484 1487 1489 1492 1494 1497 1500 1504 1507 1511 1514 1518 1522 1525 1528 1531 1535 1538 1541
1444 1445 1447 1448 1450 1452 1453 1455 1456 1457 1459 1460 1462 1464 1465 1467 1469 1472 1474 1477 1479 1481 1483 1485 1487 1488 1491 1493 1496 1499 1501 1504 1508 1511 1514 1517 1521 1525 1528 1531 1534 1537 1539 1542
1441 1443 1445 1447 1449 1451 1453 1454 1456 1458 1460 1462 1463 1466 1468 1470 1473 1475 1478 1480 1482 1484 1487 1489 1491 1493 1495 1497 1500 1502 1505 1508 1511 1514 1517 1520 1524 1527 1530 1533 1536 1539 1541 1543
1439 1442 1444 1447 1449 1451 1453 1455 1457 1459 1462 1464 1466 1469 1471 1474 1477 1479 1482 1484 1486 1488 1490 1492 1495 1497 1499 1501 1504 1506 1509 1512 1514 1517 1521 1524 1527 1530 1532 1535 1537 1540 1541 1544
1439 1441 1444 1447 1449 1452 1454 1456 1459 1461 1464 1467 1470 1472 1475 1478 1480 1483 1485 1487 1490 1492 1494 1496 1498 1500 1502 1504 1507 1510 1513 1515 1518 1521 1523 1526 1529 1531 1534 1536 1538 1540 1542 1543
1439 1442 1445 1448 1451 1453 1456 1459 1462 1465 1468 1470 1473 1476 1478 1481 1484 1486 1489 1491 1493 1495 1497 1500 1502 1503 1505 1508 1511 1513 1516 1518 1521 1523 1525 1528 1530 1532 1534 1536 1538 1540 1541 1543
1441 1444 1447 1450 1453 1456 1459 1462 1465 1468 1471 1474 1477 1479 1482 1485 1487 1489 1492 1494 1496 1498 1501 1503 1505 1506 1509 1511 1514 1516 1518 1520 1522 1524 1526 1528 1530 1532 1534 1535 1537 1539 1540 1541
1443 1446 1449 1452 1455 1459 1462 1466 1469 1472 1475 1477 1480 1483 1485 1488 1490 1493 1494 1496 1498 1501 1503 1505 1507 1509 1511 1514 1516 1518 1520 1521 1523 1525 1527 1528 1530 1531 1533 1534 1536 1537 1538 1540
1446 1449 1452 1456 1459 1463 1466 1469 1472 1475 1478 1481 1483 1486 1489 1491 1493 1495 1497 1498 1500 1503 1505 1507 1508 1510 1513 1515 1517 1518 1520 1522 1523 1525 1526 1528 1529 1530 1532 1533 1534 1535 1536 1537
1450 1453 1457 1460 1463 1466 1469 1472 1475 1478 1481 1483 1486 1488 1491 1492 1494 1496 1498 1500 1502 1504 1506 1508 1509 1511 1513 1515 1517 1518 1520 1521 1522 1523 1525 1526 1527 1528 1530 1531 1532 1533 1534 1534
1455 1458 1461 1465 1468 1470 1473 1476 1478 1481 1483 1485 1487 1490 1492 1494 1496 1498 1500 1502 1503 1505 1507 1508 1510 1511 1513 1515 1516 1517 1519 1520 1521 1522 1523 1524 1525 1526 1527 1528 1529 1529 1530 1531